CMB1531 KADW-KFHU

Flight info

Callsign CMB1531
Flight time 4h 11m
Altitude 34000
Route LINCN2 LINCN JEFSN GVE V476 LYH ALEAN Q40 AEX DAS TAYUR Q33 IAH J2 SAT J138 FST KA06W FNLAY Q166 GRNNT DUG
Aircraft CL60/M-SBDE1E2E3FGHIJ1J4J5J7M3RWXYZ/LB1V1D1

Departure

Time 2026-04-27 02:04
Airport Joint Base Andrews (KADW)

Arrival

Time 2026-04-27 06:16
Airport Sierra Vista Municipal Airport / Libby Army Air Field (KFHU)
Time Latitude Longitude Altitude Speed Heading
2026-04-27 01:52 38.80848 -76.87621 271 ft 0 kts 180°
2026-04-27 01:53 38.80848 -76.87641 272 ft 0 kts 180°
2026-04-27 01:53 38.80851 -76.87648 272 ft 0 kts 180°
2026-04-27 02:00 38.80836 -76.87643 271 ft 4 kts 143°
2026-04-27 02:00 38.80806 -76.87553 270 ft 19 kts 95°
2026-04-27 02:00 38.80752 -76.87443 267 ft 17 kts 179°
2026-04-27 02:00 38.80620 -76.87444 268 ft 20 kts 181°
2026-04-27 02:01 38.80470 -76.87444 267 ft 22 kts 179°
2026-04-27 02:01 38.80308 -76.87443 265 ft 24 kts 180°
2026-04-27 02:01 38.80129 -76.87443 263 ft 26 kts 180°
2026-04-27 02:01 38.80029 -76.87441 261 ft 10 kts 179°
2026-04-27 02:02 38.79942 -76.87440 260 ft 14 kts 179°
2026-04-27 02:02 38.79868 -76.87440 258 ft 8 kts 177°
2026-04-27 02:02 38.79845 -76.87435 258 ft 0 kts 165°
2026-04-27 02:02 38.79838 -76.87433 257 ft 3 kts 161°
2026-04-27 02:03 38.79792 -76.87360 255 ft 18 kts 94°
2026-04-27 02:03 38.79791 -76.87186 252 ft 7 kts 90°
2026-04-27 02:03 38.79791 -76.87185 252 ft 0 kts 90°
2026-04-27 02:03 38.79792 -76.87113 251 ft 24 kts 76°
2026-04-27 02:04 38.80021 -76.87060 256 ft 70 kts 358°
2026-04-27 02:04 38.80835 -76.87064 266 ft 159 kts
2026-04-27 02:04 38.82112 -76.87066 697 ft 197 kts
2026-04-27 02:04 38.83522 -76.87238 1536 ft 220 kts 342°
2026-04-27 02:05 38.84835 -76.88503 2243 ft 259 kts 303°
2026-04-27 02:05 38.85436 -76.90810 2851 ft 297 kts 274°
2026-04-27 02:05 38.85321 -76.93343 3004 ft 277 kts 264°
2026-04-27 02:05 38.85121 -76.95747 3009 ft 265 kts 264°
2026-04-27 02:06 38.84941 -76.98090 3004 ft 263 kts 265°
2026-04-27 02:06 38.84778 -77.00424 3003 ft 264 kts 266°
2026-04-27 02:06 38.84626 -77.02808 3005 ft 277 kts 267°
2026-04-27 02:06 38.84481 -77.05332 4049 ft 288 kts 268°
2026-04-27 02:07 38.84347 -77.07803 5485 ft 284 kts 269°
2026-04-27 02:07 38.84432 -77.10270 6690 ft 282 kts 288°
2026-04-27 02:07 38.85265 -77.12484 7763 ft 281 kts 307°
2026-04-27 02:07 38.86351 -77.14587 8777 ft 287 kts 307°
2026-04-27 02:08 38.87336 -77.16831 9781 ft 294 kts 294°
2026-04-27 02:08 38.87747 -77.19403 10522 ft 313 kts 275°
2026-04-27 02:08 38.87344 -77.22292 10692 ft 350 kts 247°
2026-04-27 02:08 38.85867 -77.24856 11214 ft 368 kts 226°
2026-04-27 02:09 38.84002 -77.27198 11900 ft 377 kts 226°
2026-04-27 02:09 38.82154 -77.29538 12688 ft 381 kts 226°
2026-04-27 02:09 38.80245 -77.31960 13486 ft 384 kts 227°
2026-04-27 02:09 38.78345 -77.34367 14231 ft 388 kts 227°
2026-04-27 02:10 38.76432 -77.36797 14959 ft 391 kts 228°
2026-04-27 02:10 38.74503 -77.39246 15672 ft 394 kts 228°
2026-04-27 02:10 38.72559 -77.41715 16371 ft 398 kts 228°
2026-04-27 02:10 38.70598 -77.44203 17060 ft 401 kts 229°
2026-04-27 02:11 38.68607 -77.46729 17739 ft 404 kts 229°
2026-04-27 02:11 38.66607 -77.49267 18394 ft 407 kts 229°
2026-04-27 02:11 38.64578 -77.51840 19035 ft 411 kts 229°
2026-04-27 02:11 38.62532 -77.54433 19664 ft 414 kts 229°
2026-04-27 02:12 38.60478 -77.57035 20267 ft 418 kts 229°
2026-04-27 02:12 38.58390 -77.59679 20861 ft 421 kts 229°
2026-04-27 02:12 38.56313 -77.62305 21434 ft 424 kts 229°
2026-04-27 02:12 38.54221 -77.64951 21995 ft 427 kts 229°
2026-04-27 02:13 38.52094 -77.67638 22531 ft 430 kts 228°
2026-04-27 02:13 38.49963 -77.70328 23054 ft 433 kts 228°
2026-04-27 02:13 38.47810 -77.73044 23574 ft 436 kts 228°
2026-04-27 02:13 38.45655 -77.75760 24087 ft 439 kts 228°
2026-04-27 02:14 38.43463 -77.78521 24590 ft 442 kts 228°
2026-04-27 02:14 38.41293 -77.81267 25093 ft 444 kts 229°
2026-04-27 02:14 38.39469 -77.84458 25583 ft 440 kts 245°
2026-04-27 02:14 38.38060 -77.87892 26012 ft 443 kts 246°
2026-04-27 02:15 38.36631 -77.91364 26469 ft 446 kts 245°
2026-04-27 02:15 38.35188 -77.94855 26932 ft 448 kts 245°
2026-04-27 02:15 38.33720 -77.98400 27382 ft 450 kts 245°
2026-04-27 02:15 38.32267 -78.01901 27804 ft 452 kts 245°
2026-04-27 02:16 38.30792 -78.05453 28205 ft 454 kts 245°
2026-04-27 02:16 38.29307 -78.09019 28590 ft 456 kts 245°
2026-04-27 02:16 38.27803 -78.12625 28968 ft 458 kts 245°
2026-04-27 02:16 38.26315 -78.16187 29330 ft 460 kts 245°
2026-04-27 02:17 38.24810 -78.19785 29679 ft 462 kts 245°
2026-04-27 02:17 38.23287 -78.23421 30072 ft 462 kts 245°
2026-04-27 02:17 38.21749 -78.27085 30529 ft 460 kts 245°
2026-04-27 02:17 38.20246 -78.30660 31005 ft 457 kts 245°
2026-04-27 02:18 38.18734 -78.34252 31488 ft 455 kts 245°
2026-04-27 02:18 38.17215 -78.37856 31962 ft 452 kts 245°
2026-04-27 02:18 38.15730 -78.41376 32410 ft 450 kts 245°
2026-04-27 02:18 38.14245 -78.44893 32842 ft 448 kts 245°
2026-04-27 02:19 38.12764 -78.48395 33256 ft 446 kts 245°
2026-04-27 02:19 38.11299 -78.51852 33651 ft 445 kts 245°
2026-04-27 02:19 38.09815 -78.55355 34043 ft 443 kts 245°
2026-04-27 02:19 38.08358 -78.58789 34303 ft 446 kts 245°
2026-04-27 02:20 38.05374 -78.65816 34391 ft 459 kts 245°
2026-04-27 02:20 38.02298 -78.73045 34413 ft 471 kts 245°
2026-04-27 02:21 38.00723 -78.76736 34311 ft 474 kts 245°
2026-04-27 02:21 37.99135 -78.80454 34246 ft 475 kts 245°
2026-04-27 02:21 37.96004 -78.87770 34245 ft 474 kts 245°
2026-04-27 02:22 37.92835 -78.95158 34246 ft 475 kts 245°
2026-04-27 02:22 37.89655 -79.02555 34249 ft 476 kts 244°
2026-04-27 02:23 37.86442 -79.10012 34244 ft 477 kts 244°
2026-04-27 02:23 37.83184 -79.17552 34241 ft 477 kts 244°
2026-04-27 02:24 37.79975 -79.24966 34242 ft 477 kts 244°
2026-04-27 02:24 37.76753 -79.32391 34239 ft 477 kts 244°
2026-04-27 02:25 37.73511 -79.39846 34231 ft 478 kts 244°
2026-04-27 02:25 37.70223 -79.47387 34226 ft 478 kts 245°
2026-04-27 02:26 37.66996 -79.54772 34225 ft 478 kts 245°
2026-04-27 02:26 37.63711 -79.62273 34223 ft 478 kts 245°
2026-04-27 02:27 37.60449 -79.69706 34202 ft 479 kts 244°
2026-04-27 02:27 37.57169 -79.77159 34184 ft 480 kts 244°
2026-04-27 02:28 37.53879 -79.84619 34199 ft 479 kts 244°
2026-04-27 02:28 37.50534 -79.92189 34213 ft 480 kts 244°
2026-04-27 02:29 37.47028 -80.00101 34224 ft 480 kts 244°
2026-04-27 02:29 37.43498 -80.08048 34228 ft 480 kts 244°
2026-04-27 02:30 37.39920 -80.16086 34229 ft 480 kts 244°
2026-04-27 02:30 37.36402 -80.23967 34231 ft 480 kts 244°
2026-04-27 02:31 37.32879 -80.31842 34236 ft 481 kts 244°
2026-04-27 02:31 37.29372 -80.39659 34242 ft 481 kts 244°
2026-04-27 02:32 37.25832 -80.47536 34246 ft 481 kts 244°
2026-04-27 02:32 37.22237 -80.55512 34244 ft 481 kts 244°
2026-04-27 02:33 37.18589 -80.63586 34238 ft 481 kts 244°
2026-04-27 02:33 37.15077 -80.71343 34221 ft 481 kts 244°
2026-04-27 02:34 37.11645 -80.78902 34207 ft 481 kts 244°
2026-04-27 02:34 37.08331 -80.86187 34210 ft 481 kts 244°
2026-04-27 02:35 37.04965 -80.93568 34213 ft 481 kts 244°
2026-04-27 02:35 37.01635 -81.00856 34214 ft 481 kts 244°
2026-04-27 02:36 36.98308 -81.08121 34211 ft 482 kts 244°
2026-04-27 02:36 36.94891 -81.15566 34209 ft 482 kts 244°
2026-04-27 02:37 36.91519 -81.22896 34208 ft 482 kts 244°
2026-04-27 02:37 36.88174 -81.30151 34215 ft 482 kts 244°
2026-04-27 02:38 36.84810 -81.37433 34215 ft 482 kts 244°
2026-04-27 02:38 36.81451 -81.44687 34213 ft 482 kts 244°
2026-04-27 02:39 36.78056 -81.52003 34209 ft 483 kts 245°
2026-04-27 02:39 36.74676 -81.59270 34195 ft 483 kts 245°
2026-04-27 02:40 36.71173 -81.66426 34188 ft 485 kts 242°
2026-04-27 02:40 36.67516 -81.73556 34178 ft 485 kts 242°
2026-04-27 02:41 36.63847 -81.80696 34174 ft 485 kts 242°
2026-04-27 02:41 36.60222 -81.87737 34178 ft 485 kts 242°
2026-04-27 02:42 36.56522 -81.94911 34184 ft 485 kts 242°
2026-04-27 02:42 36.52816 -82.02082 34089 ft 486 kts 242°
2026-04-27 02:43 36.49114 -82.09228 34167 ft 484 kts 242°
2026-04-27 02:43 36.45410 -82.16367 34135 ft 485 kts 242°
2026-04-27 02:44 36.41711 -82.23480 34119 ft 485 kts 242°
2026-04-27 02:44 36.38039 -82.30526 34108 ft 484 kts 242°
2026-04-27 02:45 36.34346 -82.37598 34105 ft 484 kts 242°
2026-04-27 02:45 36.30677 -82.44611 34101 ft 484 kts 242°
2026-04-27 02:46 36.27004 -82.51617 34096 ft 483 kts 242°
2026-04-27 02:46 36.23322 -82.58626 34099 ft 483 kts 242°
2026-04-27 02:47 36.19636 -82.65627 34106 ft 484 kts 242°
2026-04-27 02:47 36.15913 -82.72685 34101 ft 484 kts 242°
2026-04-27 02:48 36.12224 -82.79663 34095 ft 484 kts 242°
2026-04-27 02:48 36.08525 -82.86646 34093 ft 483 kts 242°
2026-04-27 02:49 36.04825 -82.93618 34088 ft 483 kts 242°
2026-04-27 02:49 36.01149 -83.00530 34080 ft 482 kts 242°
2026-04-27 02:50 35.97431 -83.07505 34076 ft 481 kts 242°
2026-04-27 02:50 35.93736 -83.14423 34087 ft 480 kts 242°
2026-04-27 02:51 35.90107 -83.21403 34105 ft 477 kts 244°
2026-04-27 02:51 35.86659 -83.28423 34105 ft 476 kts 245°
2026-04-27 02:52 35.83225 -83.35392 34103 ft 474 kts 245°
2026-04-27 02:52 35.79779 -83.42371 34102 ft 473 kts 245°
2026-04-27 02:53 35.76338 -83.49322 34094 ft 473 kts 245°
2026-04-27 02:53 35.72852 -83.56203 34089 ft 474 kts 243°
2026-04-27 02:54 35.69207 -83.62952 34089 ft 474 kts 243°
2026-04-27 02:54 35.65535 -83.69742 34097 ft 475 kts 242°
2026-04-27 02:55 35.61867 -83.76512 34099 ft 475 kts 242°
2026-04-27 02:55 35.58208 -83.83251 34088 ft 475 kts 242°
2026-04-27 02:56 35.54536 -83.89999 34078 ft 475 kts 242°
2026-04-27 02:56 35.50836 -83.96789 34068 ft 475 kts 242°
2026-04-27 02:57 35.47185 -84.03474 34071 ft 474 kts 242°
2026-04-27 02:57 35.43478 -84.10248 34087 ft 474 kts 242°
2026-04-27 02:58 35.39787 -84.16980 34099 ft 474 kts 242°
2026-04-27 02:58 35.36091 -84.23708 34104 ft 474 kts 242°
2026-04-27 02:59 35.32378 -84.30454 34106 ft 473 kts 242°
2026-04-27 02:59 35.28713 -84.37098 34106 ft 472 kts 242°
2026-04-27 03:00 35.25015 -84.43792 34104 ft 472 kts 242°
2026-04-27 03:00 35.21288 -84.50525 34101 ft 471 kts 242°
2026-04-27 03:01 35.17628 -84.57124 34092 ft 471 kts 242°
2026-04-27 03:01 35.13948 -84.63747 34084 ft 470 kts 242°
2026-04-27 03:02 35.10247 -84.70395 34070 ft 470 kts 242°
2026-04-27 03:02 35.06570 -84.76986 34051 ft 470 kts 241°
2026-04-27 03:03 35.01061 -84.86839 34049 ft 469 kts 241°
2026-04-27 03:04 34.97343 -84.93475 34052 ft 468 kts 241°
2026-04-27 03:04 34.93658 -85.00037 34051 ft 468 kts 241°
2026-04-27 03:05 34.90000 -85.06541 34050 ft 468 kts 241°
2026-04-27 03:05 34.86308 -85.13092 34052 ft 467 kts 241°
2026-04-27 03:06 34.82601 -85.19657 34054 ft 467 kts 241°
2026-04-27 03:06 34.78913 -85.26176 34054 ft 467 kts 241°
2026-04-27 03:07 34.75232 -85.32667 34054 ft 467 kts 241°
2026-04-27 03:07 34.71524 -85.39193 34052 ft 466 kts 241°
2026-04-27 03:08 34.67738 -85.45843 34050 ft 466 kts 241°
2026-04-27 03:08 34.64054 -85.52301 34052 ft 466 kts 241°
2026-04-27 03:09 34.60351 -85.58781 34049 ft 465 kts 241°
2026-04-27 03:09 34.56679 -85.65196 34053 ft 466 kts 240°
2026-04-27 03:10 34.52944 -85.71710 34057 ft 470 kts 240°
2026-04-27 03:10 34.49186 -85.78252 34053 ft 473 kts 240°
2026-04-27 03:11 34.45425 -85.84785 34049 ft 474 kts 240°
2026-04-27 03:11 34.41639 -85.91349 34049 ft 474 kts 240°
2026-04-27 03:12 34.37852 -85.97904 34049 ft 474 kts 240°
2026-04-27 03:12 34.34071 -86.04434 34051 ft 474 kts 240°
2026-04-27 03:13 34.30285 -86.10963 34051 ft 473 kts 240°
2026-04-27 03:13 34.26496 -86.17485 34045 ft 473 kts 240°
2026-04-27 03:14 34.22696 -86.24014 34039 ft 473 kts 240°
2026-04-27 03:14 34.18901 -86.30523 34042 ft 473 kts 240°
2026-04-27 03:15 34.15098 -86.37033 34044 ft 473 kts 240°
2026-04-27 03:15 34.11266 -86.43581 34041 ft 473 kts 240°
2026-04-27 03:16 34.07471 -86.50054 34039 ft 473 kts 240°
2026-04-27 03:16 34.03643 -86.56579 34036 ft 473 kts 240°
2026-04-27 03:17 33.99796 -86.63128 34033 ft 473 kts 240°
2026-04-27 03:17 33.95988 -86.69600 34033 ft 473 kts 240°
2026-04-27 03:18 33.92144 -86.76122 34028 ft 473 kts 240°
2026-04-27 03:18 33.88309 -86.82614 34033 ft 472 kts 240°
2026-04-27 03:19 33.84508 -86.89040 34039 ft 472 kts 240°
2026-04-27 03:19 33.80714 -86.95441 34037 ft 471 kts 240°
2026-04-27 03:20 33.76920 -87.01833 34035 ft 471 kts 240°
2026-04-27 03:20 33.73134 -87.08197 34032 ft 470 kts 240°
2026-04-27 03:21 33.69317 -87.14604 34029 ft 469 kts 240°
2026-04-27 03:21 33.65476 -87.21039 34028 ft 469 kts 240°
2026-04-27 03:22 33.61652 -87.27435 34027 ft 468 kts 240°
2026-04-27 03:22 33.57832 -87.33813 34022 ft 468 kts 240°
2026-04-27 03:23 33.54022 -87.40163 34018 ft 468 kts 240°
2026-04-27 03:23 33.50199 -87.46523 34013 ft 468 kts 240°
2026-04-27 03:24 33.46357 -87.52904 34006 ft 468 kts 240°
2026-04-27 03:24 33.42542 -87.59231 34000 ft 467 kts 240°
2026-04-27 03:25 33.38963 -87.65726 33989 ft 461 kts 247°
2026-04-27 03:25 33.36021 -87.72564 33977 ft 461 kts 248°
2026-04-27 03:26 33.33076 -87.79382 33965 ft 461 kts 248°
2026-04-27 03:26 33.30117 -87.86217 33967 ft 461 kts 248°
2026-04-27 03:27 33.27155 -87.93037 33967 ft 461 kts 248°
2026-04-27 03:27 33.24180 -87.99870 33967 ft 461 kts 248°
2026-04-27 03:28 33.21190 -88.06722 33965 ft 461 kts 248°
2026-04-27 03:28 33.18228 -88.13493 33974 ft 460 kts 248°
2026-04-27 03:29 33.15248 -88.20290 33981 ft 460 kts 248°
2026-04-27 03:29 33.12277 -88.27055 33978 ft 460 kts 248°
2026-04-27 03:30 33.09283 -88.33854 33978 ft 459 kts 248°
2026-04-27 03:30 33.06289 -88.40642 33988 ft 459 kts 248°
2026-04-27 03:31 33.03293 -88.47421 33996 ft 459 kts 248°
2026-04-27 03:31 33.00276 -88.54234 34000 ft 459 kts 248°
2026-04-27 03:32 32.97247 -88.61061 34005 ft 459 kts 248°
2026-04-27 03:32 32.94217 -88.67878 34010 ft 459 kts 247°
2026-04-27 03:33 32.91219 -88.74609 34015 ft 459 kts 247°
2026-04-27 03:33 32.88199 -88.81376 34018 ft 459 kts 247°
2026-04-27 03:34 32.85190 -88.88106 34021 ft 459 kts 248°
2026-04-27 03:34 32.82175 -88.94837 34023 ft 459 kts 248°
2026-04-27 03:35 32.79160 -89.01556 34021 ft 459 kts 247°
2026-04-27 03:35 32.76112 -89.08334 34013 ft 459 kts 247°
2026-04-27 03:36 32.73080 -89.15066 34005 ft 459 kts 247°
2026-04-27 03:36 32.69990 -89.21912 33997 ft 459 kts 247°
2026-04-27 03:37 32.66949 -89.28638 33993 ft 458 kts 247°
2026-04-27 03:37 32.63933 -89.35297 33992 ft 458 kts 248°
2026-04-27 03:38 32.61091 -89.42108 33990 ft 456 kts 250°
2026-04-27 03:38 32.58259 -89.49095 33989 ft 456 kts 250°
2026-04-27 03:39 32.55406 -89.56115 33988 ft 456 kts 250°
2026-04-27 03:39 32.52519 -89.63203 33985 ft 456 kts 250°
2026-04-27 03:40 32.49670 -89.70180 33984 ft 456 kts 249°
2026-04-27 03:40 32.46801 -89.77192 33983 ft 456 kts 249°
2026-04-27 03:41 32.43914 -89.84233 33981 ft 456 kts 249°
2026-04-27 03:41 32.41038 -89.91234 33977 ft 456 kts 249°
2026-04-27 03:42 32.38167 -89.98206 33976 ft 456 kts 249°
2026-04-27 03:42 32.35344 -90.05050 33975 ft 456 kts 249°
2026-04-27 03:43 32.32430 -90.12097 33974 ft 455 kts 249°
2026-04-27 03:43 32.29530 -90.19099 33974 ft 455 kts 249°
2026-04-27 03:44 32.26676 -90.25976 33973 ft 455 kts 249°
2026-04-27 03:44 32.23768 -90.32970 33972 ft 455 kts 249°
2026-04-27 03:45 32.20836 -90.40007 33973 ft 454 kts 249°
2026-04-27 03:45 32.17888 -90.47070 33975 ft 454 kts 249°
2026-04-27 03:46 32.14909 -90.54192 33974 ft 455 kts 249°
2026-04-27 03:46 32.11902 -90.61365 33972 ft 455 kts 249°
2026-04-27 03:47 32.08939 -90.68423 33969 ft 455 kts 249°
2026-04-27 03:47 32.05957 -90.75510 33965 ft 456 kts 249°
2026-04-27 03:48 32.02946 -90.82650 33964 ft 456 kts 249°
2026-04-27 03:48 31.99892 -90.89881 33964 ft 456 kts 249°
2026-04-27 03:49 31.96842 -90.97086 33963 ft 456 kts 249°
2026-04-27 03:49 31.93865 -91.04104 33960 ft 455 kts 249°
2026-04-27 03:50 31.90872 -91.11146 33959 ft 455 kts 249°
2026-04-27 03:50 31.87834 -91.18164 33961 ft 456 kts 247°
2026-04-27 03:51 31.84567 -91.25215 33961 ft 456 kts 247°
2026-04-27 03:51 31.81386 -91.32068 33963 ft 456 kts 247°
2026-04-27 03:52 31.78229 -91.38856 33964 ft 456 kts 247°
2026-04-27 03:52 31.75049 -91.45685 33968 ft 456 kts 247°
2026-04-27 03:53 31.71870 -91.52496 33971 ft 457 kts 247°
2026-04-27 03:53 31.68727 -91.59219 33979 ft 456 kts 247°
2026-04-27 03:54 31.65620 -91.65855 33987 ft 456 kts 246°
2026-04-27 03:54 31.62505 -91.72498 33986 ft 457 kts 246°
2026-04-27 03:55 31.59363 -91.79185 33984 ft 457 kts 246°
2026-04-27 03:55 31.56247 -91.85806 33980 ft 457 kts 246°
2026-04-27 03:56 31.53111 -91.92456 33974 ft 457 kts 246°
2026-04-27 03:56 31.49997 -91.99049 33965 ft 457 kts 246°
2026-04-27 03:57 31.46845 -92.05711 33955 ft 457 kts 246°
2026-04-27 03:57 31.43719 -92.12306 33945 ft 456 kts 246°
2026-04-27 03:58 31.40628 -92.18816 33937 ft 456 kts 246°
2026-04-27 03:58 31.37517 -92.25357 33934 ft 456 kts 246°
2026-04-27 03:59 31.34405 -92.31892 33930 ft 455 kts 246°
2026-04-27 03:59 31.31981 -92.38649 33926 ft 446 kts 259°
2026-04-27 04:00 31.30999 -92.45747 33926 ft 439 kts 271°
2026-04-27 04:00 31.30994 -92.52891 33932 ft 437 kts 274°
2026-04-27 04:01 31.31042 -92.59984 33937 ft 437 kts 274°
2026-04-27 04:01 31.31086 -92.67137 33937 ft 437 kts 273°
2026-04-27 04:02 31.31124 -92.74246 33938 ft 436 kts 273°
2026-04-27 04:02 31.31158 -92.81392 33938 ft 436 kts 273°
2026-04-27 04:03 31.31187 -92.88521 33936 ft 436 kts 273°
2026-04-27 04:03 31.31212 -92.95641 33931 ft 435 kts 273°
2026-04-27 04:04 31.31233 -93.02731 33925 ft 435 kts 273°
2026-04-27 04:04 31.31249 -93.09839 33923 ft 434 kts 273°
2026-04-27 04:05 31.31262 -93.16917 33920 ft 434 kts 273°
2026-04-27 04:05 31.31271 -93.24016 33920 ft 433 kts 273°
2026-04-27 04:06 31.31275 -93.31075 33922 ft 433 kts 273°
2026-04-27 04:06 31.31276 -93.38171 33925 ft 433 kts 273°
2026-04-27 04:07 31.31270 -93.48754 33926 ft 433 kts 273°
2026-04-27 04:07 31.31261 -93.55969 33924 ft 432 kts 273°
2026-04-27 04:08 31.31248 -93.63009 33923 ft 432 kts 273°
2026-04-27 04:08 31.31232 -93.70116 33922 ft 432 kts 272°
2026-04-27 04:09 31.31210 -93.77190 33918 ft 432 kts 272°
2026-04-27 04:09 31.31187 -93.84192 33917 ft 432 kts 272°
2026-04-27 04:10 31.31158 -93.91235 33919 ft 431 kts 272°
2026-04-27 04:10 31.31126 -93.98304 33921 ft 431 kts 272°
2026-04-27 04:11 31.31091 -94.05297 33921 ft 431 kts 272°
2026-04-27 04:11 31.31052 -94.12302 33920 ft 431 kts 272°
2026-04-27 04:12 31.31008 -94.19367 33914 ft 431 kts 272°
2026-04-27 04:12 31.30961 -94.26417 33909 ft 430 kts 272°
2026-04-27 04:13 31.30910 -94.33429 33906 ft 430 kts 272°
2026-04-27 04:13 31.30855 -94.40435 33903 ft 429 kts 272°
2026-04-27 04:14 31.30796 -94.47457 33900 ft 429 kts 272°
2026-04-27 04:14 31.30734 -94.54415 33897 ft 428 kts 272°
2026-04-27 04:15 31.30669 -94.61393 33896 ft 428 kts 272°
2026-04-27 04:15 31.30599 -94.68363 33895 ft 428 kts 271°
2026-04-27 04:16 31.30525 -94.75384 33894 ft 428 kts 271°
2026-04-27 04:16 31.30448 -94.82378 33891 ft 427 kts 271°
2026-04-27 04:17 31.30367 -94.89335 33890 ft 427 kts 271°
2026-04-27 04:17 31.30282 -94.96334 33889 ft 427 kts 271°
2026-04-27 04:18 31.30194 -95.03294 33888 ft 426 kts 271°
2026-04-27 04:18 31.30101 -95.10278 33887 ft 426 kts 271°
2026-04-27 04:19 31.30003 -95.17343 33883 ft 426 kts 271°
2026-04-27 04:19 31.29903 -95.24340 33879 ft 425 kts 271°
2026-04-27 04:20 31.29800 -95.31220 33875 ft 425 kts 271°
2026-04-27 04:20 31.29693 -95.38165 33873 ft 424 kts 271°
2026-04-27 04:21 31.29583 -95.45091 33873 ft 424 kts 271°
2026-04-27 04:21 31.29469 -95.52019 33874 ft 424 kts 271°
2026-04-27 04:22 31.29350 -95.58949 33872 ft 424 kts 271°
2026-04-27 04:22 31.29228 -95.65909 33870 ft 424 kts 270°
2026-04-27 04:23 31.29102 -95.72845 33868 ft 424 kts 270°
2026-04-27 04:23 31.28973 -95.79734 33868 ft 424 kts 270°
2026-04-27 04:24 31.28841 -95.86642 33871 ft 423 kts 270°
2026-04-27 04:24 31.28703 -95.93592 33874 ft 423 kts 270°
2026-04-27 04:25 31.28563 -96.00500 33876 ft 423 kts 270°
2026-04-27 04:25 31.28418 -96.07450 33874 ft 423 kts 270°
2026-04-27 04:26 31.28269 -96.14404 33869 ft 422 kts 270°
2026-04-27 04:26 31.28118 -96.21276 33866 ft 422 kts 270°
2026-04-27 04:27 31.27962 -96.28217 33867 ft 422 kts 270°
2026-04-27 04:27 31.27804 -96.35072 33866 ft 421 kts 270°
2026-04-27 04:28 31.27642 -96.41937 33862 ft 421 kts 270°
2026-04-27 04:28 31.27476 -96.48837 33861 ft 421 kts 270°
2026-04-27 04:29 31.27306 -96.55720 33862 ft 421 kts 270°
2026-04-27 04:29 31.27132 -96.62616 33863 ft 421 kts 270°
2026-04-27 04:30 31.26956 -96.69475 33862 ft 421 kts 270°
2026-04-27 04:30 31.26777 -96.76285 33862 ft 421 kts 270°
2026-04-27 04:31 31.26591 -96.83208 33867 ft 421 kts 269°
2026-04-27 04:31 31.26402 -96.90115 33869 ft 421 kts 269°
2026-04-27 04:32 31.26210 -96.96968 33867 ft 420 kts 269°
2026-04-27 04:32 31.26015 -97.03826 33865 ft 420 kts 269°
2026-04-27 04:33 31.25817 -97.10672 33862 ft 420 kts 269°
2026-04-27 04:33 31.25617 -97.17449 33861 ft 419 kts 269°
2026-04-27 04:34 31.25412 -97.24260 33861 ft 419 kts 269°
2026-04-27 04:34 31.25202 -97.31112 33860 ft 419 kts 269°
2026-04-27 04:35 31.24989 -97.37960 33858 ft 419 kts 269°
2026-04-27 04:35 31.24773 -97.44762 33857 ft 419 kts 269°
2026-04-27 04:36 31.24553 -97.51619 33859 ft 418 kts 269°
2026-04-27 04:36 31.24330 -97.58401 33858 ft 418 kts 269°
2026-04-27 04:37 31.24101 -97.65298 33855 ft 418 kts 269°
2026-04-27 04:37 31.23869 -97.72166 33850 ft 418 kts 269°
2026-04-27 04:38 31.23632 -97.79061 33845 ft 418 kts 269°
2026-04-27 04:38 31.23394 -97.85895 33844 ft 418 kts 269°
2026-04-27 04:39 31.23150 -97.92773 33846 ft 418 kts 269°
2026-04-27 04:39 31.22904 -97.99630 33848 ft 418 kts 268°
2026-04-27 04:40 31.22655 -98.06450 33852 ft 418 kts 268°
2026-04-27 04:40 31.22403 -98.13268 33853 ft 418 kts 268°
2026-04-27 04:41 31.22146 -98.20121 33851 ft 418 kts 268°
2026-04-27 04:41 31.21886 -98.26946 33852 ft 417 kts 268°
2026-04-27 04:42 31.21624 -98.33729 33854 ft 417 kts 268°
2026-04-27 04:42 31.21357 -98.40534 33856 ft 416 kts 268°
2026-04-27 04:43 31.21089 -98.47302 33858 ft 416 kts 268°
2026-04-27 04:43 31.20815 -98.54118 33859 ft 416 kts 268°
2026-04-27 04:44 31.20533 -98.61050 33858 ft 416 kts 268°
2026-04-27 04:44 31.20237 -98.68207 33858 ft 416 kts 268°
2026-04-27 04:45 31.19934 -98.75469 33859 ft 416 kts 268°
2026-04-27 04:45 31.19626 -98.82731 33863 ft 415 kts 268°
2026-04-27 04:46 31.19309 -98.90090 33868 ft 415 kts 268°
2026-04-27 04:46 31.18998 -98.97241 33870 ft 415 kts 268°
2026-04-27 04:47 31.18678 -99.04507 33872 ft 415 kts 268°
2026-04-27 04:47 31.18349 -99.11867 33866 ft 415 kts 268°
2026-04-27 04:48 31.18027 -99.18995 33860 ft 414 kts 268°
2026-04-27 04:48 31.17709 -99.25951 33850 ft 414 kts 268°
2026-04-27 04:49 31.17397 -99.32687 33844 ft 414 kts 268°
2026-04-27 04:49 31.17079 -99.39459 33848 ft 414 kts 268°
2026-04-27 04:50 31.16758 -99.46241 33850 ft 414 kts 268°
2026-04-27 04:50 31.16433 -99.53038 33853 ft 414 kts 268°
2026-04-27 04:51 31.16107 -99.59766 33853 ft 414 kts 268°
2026-04-27 04:51 31.15779 -99.66473 33855 ft 414 kts 267°
2026-04-27 04:52 31.15447 -99.73192 33857 ft 414 kts 267°
2026-04-27 04:52 31.15108 -99.79967 33859 ft 414 kts 267°
2026-04-27 04:53 31.14769 -99.86682 33863 ft 413 kts 267°
2026-04-27 04:53 31.14424 -99.93451 33867 ft 413 kts 267°
2026-04-27 04:54 31.14079 -100.00152 33870 ft 413 kts 267°
2026-04-27 04:54 31.13729 -100.06873 33872 ft 412 kts 267°
2026-04-27 04:55 31.13373 -100.13650 33872 ft 412 kts 267°
2026-04-27 04:55 31.13013 -100.20430 33874 ft 412 kts 267°
2026-04-27 04:56 31.12647 -100.27245 33875 ft 411 kts 267°
2026-04-27 04:56 31.12279 -100.34042 33871 ft 411 kts 267°
2026-04-27 04:57 31.11910 -100.40801 33868 ft 411 kts 267°
2026-04-27 04:57 31.11537 -100.47536 33867 ft 411 kts 267°
2026-04-27 04:58 31.11148 -100.54529 33868 ft 410 kts 267°
2026-04-27 04:58 31.10746 -100.61668 33874 ft 410 kts 267°
2026-04-27 04:59 31.10326 -100.69054 33881 ft 410 kts 266°
2026-04-27 04:59 31.09900 -100.76469 33890 ft 410 kts 266°
2026-04-27 05:00 31.09472 -100.83845 33901 ft 410 kts 266°
2026-04-27 05:00 31.09037 -100.91265 33911 ft 410 kts 266°
2026-04-27 05:01 31.08590 -100.98830 33917 ft 410 kts 266°
2026-04-27 05:01 31.08155 -101.06097 33916 ft 409 kts 266°
2026-04-27 05:02 31.07724 -101.13243 33905 ft 409 kts 266°
2026-04-27 05:03 31.07055 -101.24212 33900 ft 409 kts 266°
2026-04-27 05:03 31.06605 -101.31506 33898 ft 408 kts 266°
2026-04-27 05:04 31.06150 -101.38817 33885 ft 408 kts 266°
2026-04-27 05:04 31.05695 -101.46059 33879 ft 408 kts 266°
2026-04-27 05:05 31.05236 -101.53294 33879 ft 408 kts 266°
2026-04-27 05:05 31.04771 -101.60561 33878 ft 407 kts 266°
2026-04-27 05:06 31.04310 -101.67697 33877 ft 408 kts 265°
2026-04-27 05:06 31.03836 -101.74983 33878 ft 408 kts 265°
2026-04-27 05:07 31.03349 -101.82399 33872 ft 408 kts 265°
2026-04-27 05:07 31.02866 -101.89692 33866 ft 408 kts 265°
2026-04-27 05:08 31.02381 -101.96966 33859 ft 407 kts 265°
2026-04-27 05:08 31.01886 -102.04321 33852 ft 407 kts 265°
2026-04-27 05:09 31.01398 -102.11506 33850 ft 406 kts 265°
2026-04-27 05:09 31.00904 -102.18716 33849 ft 406 kts 265°
2026-04-27 05:10 31.00394 -102.26116 33840 ft 405 kts 265°
2026-04-27 05:10 30.99888 -102.33386 33828 ft 405 kts 265°
2026-04-27 05:11 30.99398 -102.40364 33824 ft 405 kts 265°
2026-04-27 05:11 30.98901 -102.47407 33823 ft 404 kts 265°
2026-04-27 05:12 30.98411 -102.54295 33825 ft 404 kts 265°
2026-04-27 05:12 30.97902 -102.61381 33826 ft 405 kts 265°
2026-04-27 05:13 30.97395 -102.68406 33831 ft 405 kts 265°
2026-04-27 05:13 30.96879 -102.75486 33836 ft 405 kts 265°
2026-04-27 05:14 30.96360 -102.82558 33840 ft 405 kts 265°
2026-04-27 05:14 30.95838 -102.89616 33846 ft 404 kts 264°
2026-04-27 05:15 30.95317 -102.96672 33851 ft 404 kts 265°
2026-04-27 05:15 30.95511 -103.03697 33852 ft 405 kts 272°
2026-04-27 05:16 30.95875 -103.10709 33853 ft 404 kts 271°
2026-04-27 05:16 30.96237 -103.17819 33854 ft 404 kts 271°
2026-04-27 05:17 30.96592 -103.24934 33854 ft 404 kts 271°
2026-04-27 05:17 30.96936 -103.31946 33858 ft 404 kts 271°
2026-04-27 05:18 30.97275 -103.38965 33861 ft 404 kts 271°
2026-04-27 05:18 30.97605 -103.45879 33881 ft 404 kts 271°
2026-04-27 05:19 30.97926 -103.52835 33899 ft 403 kts 271°
2026-04-27 05:19 30.98258 -103.59969 33903 ft 403 kts 271°
2026-04-27 05:20 30.98584 -103.67020 33911 ft 404 kts 271°
2026-04-27 05:20 30.98901 -103.74026 33925 ft 404 kts 271°
2026-04-27 05:21 30.99216 -103.81052 33955 ft 403 kts 271°
2026-04-27 05:21 30.99521 -103.88048 34002 ft 403 kts 271°
2026-04-27 05:22 30.99827 -103.95052 34031 ft 403 kts 271°
2026-04-27 05:22 31.00261 -104.02016 34053 ft 405 kts 275°
2026-04-27 05:23 31.01202 -104.08921 34056 ft 405 kts 276°
2026-04-27 05:23 31.02151 -104.15937 34056 ft 405 kts 275°
2026-04-27 05:24 31.03083 -104.22870 34015 ft 404 kts 275°
2026-04-27 05:24 31.04011 -104.29816 33963 ft 404 kts 275°
2026-04-27 05:25 31.04944 -104.36848 33967 ft 403 kts 275°
2026-04-27 05:25 31.05859 -104.43781 33971 ft 404 kts 275°
2026-04-27 05:26 31.06762 -104.50655 33973 ft 405 kts 275°
2026-04-27 05:26 31.07668 -104.57593 33983 ft 406 kts 275°
2026-04-27 05:27 31.08580 -104.64604 33987 ft 406 kts 275°
2026-04-27 05:27 31.09462 -104.71423 33989 ft 406 kts 275°
2026-04-27 05:28 31.10369 -104.78465 33993 ft 405 kts 275°
2026-04-27 05:28 31.11262 -104.85426 34009 ft 405 kts 275°
2026-04-27 05:29 31.12136 -104.92275 34029 ft 405 kts 275°
2026-04-27 05:29 31.13002 -104.99096 34048 ft 405 kts 275°
2026-04-27 05:30 31.13873 -105.05978 34039 ft 405 kts 275°
2026-04-27 05:30 31.14738 -105.12852 34030 ft 405 kts 275°
2026-04-27 05:31 31.15594 -105.19675 34020 ft 405 kts 274°
2026-04-27 05:31 31.16429 -105.26368 34004 ft 405 kts 274°
2026-04-27 05:32 31.17862 -105.32983 33991 ft 414 kts 286°
2026-04-27 05:32 31.20807 -105.39114 33986 ft 428 kts 298°
2026-04-27 05:33 31.24529 -105.44543 33988 ft 431 kts 301°
2026-04-27 05:33 31.28574 -105.50391 33990 ft 432 kts 301°
2026-04-27 05:34 31.32659 -105.56313 33988 ft 432 kts 301°
2026-04-27 05:34 31.36754 -105.62262 34002 ft 432 kts 301°
2026-04-27 05:35 31.40796 -105.68147 34017 ft 433 kts 300°
2026-04-27 05:35 31.44897 -105.74127 34027 ft 433 kts 300°
2026-04-27 05:36 31.49008 -105.80135 34028 ft 433 kts 300°
2026-04-27 05:36 31.53074 -105.86086 34014 ft 433 kts 300°
2026-04-27 05:37 31.57118 -105.92014 34001 ft 433 kts 300°
2026-04-27 05:37 31.61195 -105.98002 33992 ft 433 kts 300°
2026-04-27 05:38 31.65216 -106.03918 33989 ft 432 kts 300°
2026-04-27 05:38 31.69220 -106.09816 33986 ft 432 kts 300°
2026-04-27 05:39 31.73234 -106.15741 33981 ft 432 kts 300°
2026-04-27 05:39 31.77134 -106.21506 33974 ft 433 kts 300°
2026-04-27 05:40 31.80363 -106.27446 33959 ft 419 kts 288°
2026-04-27 05:40 31.82076 -106.33890 33953 ft 407 kts 275°
2026-04-27 05:41 31.82735 -106.40598 33953 ft 406 kts 272°
2026-04-27 05:41 31.83345 -106.47241 33958 ft 406 kts 272°
2026-04-27 05:42 31.83949 -106.53908 33962 ft 406 kts 272°
2026-04-27 05:42 31.84464 -106.60627 33966 ft 404 kts 269°
2026-04-27 05:43 31.84678 -106.67394 33968 ft 404 kts 268°
2026-04-27 05:43 31.84891 -106.74190 33970 ft 403 kts 268°
2026-04-27 05:44 31.85100 -106.81012 33978 ft 402 kts 268°
2026-04-27 05:44 31.85307 -106.87860 33983 ft 402 kts 268°
2026-04-27 05:45 31.85510 -106.94718 33982 ft 402 kts 268°
2026-04-27 05:45 31.85709 -107.01559 33981 ft 401 kts 268°
2026-04-27 05:46 31.85904 -107.08370 33981 ft 401 kts 268°
2026-04-27 05:46 31.86096 -107.15236 33982 ft 400 kts 268°
2026-04-27 05:47 31.86287 -107.22180 33984 ft 400 kts 268°
2026-04-27 05:47 31.86471 -107.28996 33979 ft 400 kts 268°
2026-04-27 05:48 31.86650 -107.35753 33969 ft 400 kts 269°
2026-04-27 05:48 31.86825 -107.42506 33967 ft 399 kts 269°
2026-04-27 05:49 31.86996 -107.49253 33971 ft 399 kts 269°
2026-04-27 05:49 31.87164 -107.56062 33976 ft 398 kts 268°
2026-04-27 05:50 31.87329 -107.62826 33980 ft 398 kts 268°
2026-04-27 05:50 31.87489 -107.69575 33983 ft 398 kts 268°
2026-04-27 05:51 31.87646 -107.76322 33987 ft 397 kts 268°
2026-04-27 05:51 31.87798 -107.83041 33998 ft 396 kts 268°
2026-04-27 05:52 31.87947 -107.89757 34010 ft 395 kts 268°
2026-04-27 05:52 31.88092 -107.96443 34017 ft 395 kts 268°
2026-04-27 05:53 31.88233 -108.03120 34025 ft 395 kts 268°
2026-04-27 05:53 31.88317 -108.09837 34034 ft 393 kts 264°
2026-04-27 05:54 31.87120 -108.16248 34042 ft 391 kts 253°
2026-04-27 05:54 31.85425 -108.22576 34045 ft 391 kts 253°
2026-04-27 05:55 31.83724 -108.28904 34043 ft 391 kts 253°
2026-04-27 05:55 31.82034 -108.35167 34035 ft 391 kts 253°
2026-04-27 05:56 31.80336 -108.41432 34027 ft 391 kts 253°
2026-04-27 05:56 31.78625 -108.47726 34019 ft 391 kts 253°
2026-04-27 05:57 31.76911 -108.54012 34019 ft 391 kts 253°
2026-04-27 05:57 31.75198 -108.60280 33964 ft 390 kts 253°
2026-04-27 05:57 31.74341 -108.63410 33560 ft 380 kts 253°
2026-04-27 05:58 31.73528 -108.66370 33082 ft 371 kts 252°
2026-04-27 05:58 31.72724 -108.69297 32587 ft 364 kts 252°
2026-04-27 05:58 31.71924 -108.72205 32102 ft 361 kts 252°
2026-04-27 05:58 31.71125 -108.75109 31622 ft 360 kts 252°
2026-04-27 05:59 31.70344 -108.77942 31104 ft 359 kts 252°
2026-04-27 05:59 31.69553 -108.80808 30655 ft 362 kts 252°
2026-04-27 05:59 31.68771 -108.83641 30168 ft 364 kts 252°
2026-04-27 05:59 31.67981 -108.86500 29685 ft 366 kts 252°
2026-04-27 06:00 31.66365 -108.92341 28694 ft 368 kts 252°
2026-04-27 06:00 31.65566 -108.95225 28202 ft 366 kts 252°
2026-04-27 06:00 31.64763 -108.98122 27702 ft 364 kts 252°
2026-04-27 06:01 31.63945 -109.01064 27206 ft 360 kts 252°
2026-04-27 06:01 31.63128 -109.04003 26718 ft 358 kts 252°
2026-04-27 06:01 31.62303 -109.06969 26219 ft 356 kts 252°
2026-04-27 06:01 31.61497 -109.09862 25730 ft 354 kts 252°
2026-04-27 06:02 31.60679 -109.12795 25216 ft 352 kts 252°
2026-04-27 06:02 31.59876 -109.15672 24712 ft 350 kts 252°
2026-04-27 06:02 31.59068 -109.18565 24208 ft 347 kts 252°
2026-04-27 06:02 31.58273 -109.21408 23711 ft 345 kts 252°
2026-04-27 06:03 31.57466 -109.24291 23220 ft 343 kts 252°
2026-04-27 06:03 31.56683 -109.27085 22737 ft 341 kts 252°
2026-04-27 06:03 31.55864 -109.30003 22237 ft 339 kts 252°
2026-04-27 06:03 31.55036 -109.32954 21738 ft 338 kts 252°
2026-04-27 06:04 31.54243 -109.35774 21248 ft 336 kts 252°
2026-04-27 06:04 31.53466 -109.38535 20774 ft 333 kts 252°
2026-04-27 06:04 31.52660 -109.41400 20288 ft 331 kts 252°
2026-04-27 06:04 31.51868 -109.44218 19800 ft 329 kts 252°
2026-04-27 06:05 31.51120 -109.46866 19347 ft 327 kts 252°
2026-04-27 06:05 31.50364 -109.49544 18886 ft 325 kts 252°
2026-04-27 06:05 31.49625 -109.52156 18429 ft 323 kts 251°
2026-04-27 06:05 31.48875 -109.54806 17974 ft 321 kts 251°
2026-04-27 06:06 31.48161 -109.57411 17527 ft 320 kts 255°
2026-04-27 06:06 31.47960 -109.60139 17045 ft 324 kts 271°
2026-04-27 06:06 31.48605 -109.62909 16547 ft 333 kts 288°
2026-04-27 06:06 31.49798 -109.65464 16021 ft 335 kts 292°
2026-04-27 06:07 31.51034 -109.67992 15563 ft 334 kts 292°
2026-04-27 06:07 31.52261 -109.70515 15088 ft 332 kts 292°
2026-04-27 06:07 31.53507 -109.73079 14606 ft 331 kts 292°
2026-04-27 06:07 31.54708 -109.75555 14069 ft 332 kts 293°
2026-04-27 06:08 31.55918 -109.78052 13511 ft 323 kts 293°
2026-04-27 06:08 31.57128 -109.80552 13021 ft 316 kts 293°
2026-04-27 06:08 31.58224 -109.82880 12590 ft 306 kts 289°
2026-04-27 06:08 31.58737 -109.85214 12195 ft 289 kts 270°
2026-04-27 06:09 31.58768 -109.87599 11795 ft 283 kts 267°
2026-04-27 06:09 31.58779 -109.89922 11426 ft 277 kts 267°
2026-04-27 06:09 31.58790 -109.92213 11054 ft 272 kts 267°
2026-04-27 06:09 31.58798 -109.94476 10696 ft 266 kts 266°
2026-04-27 06:10 31.58805 -109.96654 10346 ft 261 kts 266°
2026-04-27 06:10 31.58809 -109.98763 10008 ft 257 kts 267°
2026-04-27 06:10 31.58811 -110.00891 9658 ft 256 kts 267°
2026-04-27 06:10 31.58813 -110.02998 9306 ft 258 kts 268°
2026-04-27 06:11 31.58815 -110.05128 8951 ft 262 kts 268°
2026-04-27 06:11 31.58818 -110.07305 8590 ft 265 kts 269°
2026-04-27 06:11 31.58821 -110.09503 8232 ft 268 kts 269°
2026-04-27 06:11 31.58813 -110.11698 7988 ft 262 kts 269°
2026-04-27 06:12 31.58790 -110.13734 7678 ft 235 kts 269°
2026-04-27 06:12 31.58782 -110.15578 7341 ft 208 kts 270°
2026-04-27 06:12 31.58778 -110.17218 7030 ft 179 kts 270°
2026-04-27 06:12 31.58774 -110.18617 6787 ft 160 kts 269°
2026-04-27 06:13 31.58774 -110.19933 6649 ft 155 kts 270°
2026-04-27 06:13 31.58776 -110.21225 6485 ft 152 kts 270°
2026-04-27 06:13 31.58777 -110.22495 6291 ft 150 kts 269°
2026-04-27 06:13 31.58776 -110.23724 6099 ft 149 kts 270°
2026-04-27 06:14 31.58778 -110.24958 5899 ft 148 kts 270°
2026-04-27 06:14 31.58776 -110.26200 5703 ft 148 kts 270°
2026-04-27 06:14 31.58775 -110.27428 5508 ft 145 kts 270°
2026-04-27 06:14 31.58775 -110.28593 5324 ft 136 kts 270°
2026-04-27 06:15 31.58776 -110.29722 5137 ft 132 kts 270°
2026-04-27 06:15 31.58776 -110.30823 4967 ft 129 kts 270°
2026-04-27 06:15 31.58773 -110.31907 4795 ft 130 kts 270°
2026-04-27 06:15 31.58769 -110.33015 4629 ft 131 kts 270°
2026-04-27 06:16 31.58764 -110.34016 4635 ft 94 kts 268°
2026-04-27 06:16 31.58759 -110.34566 4655 ft 36 kts 270°
2026-04-27 06:16 31.58758 -110.34892 4666 ft 32 kts 269°
2026-04-27 06:16 31.58756 -110.35040 4672 ft 14 kts 267°
2026-04-27 06:17 31.58755 -110.35216 4678 ft 30 kts 270°
2026-04-27 06:17 31.58757 -110.35555 4686 ft 39 kts 271°
2026-04-27 06:17 31.58754 -110.35887 4690 ft 23 kts 258°
2026-04-27 06:17 31.58619 -110.35939 4702 ft 18 kts 179°
2026-04-27 06:18 31.58483 -110.35939 4710 ft 16 kts 180°
2026-04-27 06:18 31.58371 -110.35934 4719 ft 12 kts 155°
2026-04-27 06:18 31.58358 -110.35857 4719 ft 3 kts 91°
2026-04-27 06:18 31.58358 -110.35856 4719 ft 0 kts 90°